| time (UTC) | temp C | wind direction | speed KPH | gust KPH | rain 1hr cm | rain 24hr cm | rain mn cm | humidity % | barometer mb |
| 20260506205340 | 15 | 130 | 0.0 | 1.6 | 0.05 | 0.23 | 0.23 | 100 | 1004.2 |
| 20260506204847 | 15 | 130 | 0.0 | 1.6 | 0.05 | 0.23 | 0.23 | 100 | 1004.2 |
| 20260506204346 | 15 | 130 | 0.0 | 0.0 | 0.05 | 0.23 | 0.23 | 100 | 1004.3 |
| 20260506203845 | 15 | 130 | 0.0 | 4.8 | 0.05 | 0.23 | 0.23 | 100 | 1004.3 |
| 20260506203358 | 15 | 130 | 0.0 | 4.8 | 0.05 | 0.23 | 0.23 | 100 | 1004.3 |
| 20260506202819 | 15 | 130 | 1.6 | 4.8 | 0.05 | 0.23 | 0.23 | 100 | 1004.3 |
| 20260506202321 | 15 | 130 | 0.0 | 4.8 | 0.05 | 0.23 | 0.23 | 100 | 1004.3 |
| 20260506201821 | 15 | 129 | 0.0 | 1.6 | 0.05 | 0.23 | 0.23 | 100 | 1004.3 |
| 20260506201323 | 15 | 129 | 0.0 | 4.8 | 0.08 | 0.23 | 0.23 | 100 | 1004.4 |
| 20260506200823 | 15 | 129 | 0.0 | 4.8 | 0.05 | 0.20 | 0.20 | 100 | 1004.4 |
| 20260506200347 | 15 | 127 | 0.0 | 4.8 | 0.03 | 0.18 | 0.18 | 100 | 1004.5 |
| 20260506195828 | 15 | 127 | 0.0 | 4.8 | 0.03 | 0.18 | 0.18 | 100 | 1004.6 |
| 20260506195330 | 15 | 127 | 0.0 | 0.0 | 0.03 | 0.18 | 0.18 | 100 | 1004.6 |
| 20260506194841 | 15 | 127 | 0.0 | 0.0 | 0.03 | 0.18 | 0.18 | 100 | 1004.7 |
| 20260506194351 | 15 | 126 | 0.0 | 1.6 | 0.03 | 0.18 | 0.18 | 100 | 1004.7 |
| 20260506193835 | 15 | 126 | 0.0 | 1.6 | 0.03 | 0.18 | 0.18 | 100 | 1004.8 |
| 20260506193320 | 15 | 126 | 0.0 | 1.6 | 0.03 | 0.18 | 0.18 | 100 | 1004.8 |
| 20260506192819 | 15 | 126 | 0.0 | 1.6 | 0.03 | 0.18 | 0.18 | 100 | 1004.9 |
| 20260506192328 | 15 | 126 | 0.0 | 0.0 | 0.03 | 0.18 | 0.18 | 100 | 1004.8 |
| 20260506191833 | 15 | 126 | 0.0 | 1.6 | 0.03 | 0.18 | 0.18 | 100 | 1004.8 |
| 20260506191335 | 15 | 126 | 0.0 | 1.6 | 0.03 | 0.15 | 0.15 | 100 | 1004.9 |
| 20260506190838 | 15 | 132 | 0.0 | 3.2 | 0.03 | 0.15 | 0.15 | 100 | 1004.9 |
| 20260506190337 | 15 | 132 | 0.0 | 3.2 | 0.03 | 0.15 | 0.15 | 99 | 1005.0 |
| 20260506185845 | 15 | 131 | 0.0 | 1.6 | 0.03 | 0.15 | 0.15 | 99 | 1005.0 |
| 20260506185329 | 15 | 131 | 0.0 | 4.8 | 0.03 | 0.15 | 0.15 | 99 | 1005.0 |
| 20260506184837 | 15 | 131 | 0.0 | 11.3 | 0.03 | 0.15 | 0.15 | 99 | 1005.2 |
| 20260506184319 | 15 | 121 | 1.6 | 11.3 | 0.05 | 0.15 | 0.15 | 99 | 1005.2 |
| 20260506183826 | 15 | 80 | 0.0 | 8.0 | 0.05 | 0.15 | 0.15 | 99 | 1005.2 |
| 20260506183353 | 15 | 75 | 0.0 | 4.8 | 0.05 | 0.15 | 0.15 | 99 | 1005.3 |
| 20260506182836 | 15 | 109 | 0.0 | 6.4 | 0.08 | 0.15 | 0.15 | 98 | 1005.3 |
| 20260506182335 | 15 | 131 | 1.6 | 8.0 | 0.08 | 0.15 | 0.15 | 98 | 1005.2 |
| 20260506181836 | 15 | 94 | 3.2 | 8.0 | 0.10 | 0.15 | 0.15 | 98 | 1005.3 |
| 20260506181321 | 15 | 107 | 0.0 | 6.4 | 0.10 | 0.13 | 0.13 | 98 | 1005.3 |
| 20260506180828 | 16 | 67 | 0.0 | 3.2 | 0.10 | 0.13 | 0.13 | 97 | 1005.3 |
| 20260506180333 | 16 | 67 | 0.0 | 1.6 | 0.10 | 0.13 | 0.13 | 97 | 1005.3 |
| 20260506175838 | 16 | 69 | 0.0 | 4.8 | 0.13 | 0.13 | 0.13 | 97 | 1005.4 |
| 20260506175327 | 16 | 175 | 0.0 | 4.8 | 0.13 | 0.13 | 0.13 | 97 | 1005.4 |
| 20260506174835 | 16 | 209 | 0.0 | 3.2 | 0.13 | 0.13 | 0.13 | 96 | 1005.3 |
| 20260506174338 | 16 | 209 | 0.0 | 8.0 | 0.10 | 0.10 | 0.10 | 96 | 1005.5 |
| 20260506173841 | 16 | 244 | 0.0 | 8.0 | 0.10 | 0.10 | 0.10 | 96 | 1005.5 |
| 20260506173324 | 17 | 88 | 0.0 | 3.2 | 0.08 | 0.08 | 0.08 | 95 | 1005.7 |
| 20260506172828 | 17 | 90 | 0.0 | 1.6 | 0.08 | 0.08 | 0.08 | 94 | 1005.7 |
| 20260506172328 | 17 | 129 | 0.0 | 1.6 | 0.05 | 0.05 | 0.05 | 93 | 1005.8 |
| 20260506171838 | 17 | 129 | 0.0 | 1.6 | 0.05 | 0.05 | 0.05 | 92 | 1005.7 |
| 20260506171339 | 17 | 129 | 0.0 | 1.6 | 0.03 | 0.03 | 0.03 | 91 | 1006.1 |
| 20260506170850 | 17 | 130 | 0.0 | 1.6 | 0.03 | 0.03 | 0.03 | 90 | 1006.3 |
| 20260506170342 | 18 | 132 | 0.0 | 4.8 | 0.03 | 0.03 | 0.03 | 89 | 1006.3 |
| 20260506165843 | 18 | 179 | 0.0 | 1.6 | 0.00 | 0.00 | 0.00 | 88 | 1006.4 |
| 20260506165334 | 18 | 192 | 0.0 | 6.4 | 0.00 | 0.00 | 0.00 | 87 | 1006.3 |
| 20260506164835 | 18 | 192 | 1.6 | 9.7 | 0.00 | 0.00 | 0.00 | 85 | 1006.3 |
| 20260506164332 | 19 | 130 | 0.0 | 11.3 | 0.00 | 0.00 | 0.00 | 84 | 1006.4 |
| 20260506163836 | 19 | 188 | 3.2 | 11.3 | 0.00 | 0.00 | 0.00 | 84 | 1006.2 |
| 20260506163334 | 20 | 114 | 0.0 | 9.7 | 0.00 | 0.00 | 0.00 | 82 | 1006.2 |
| 20260506162834 | 20 | 49 | 0.0 | 8.0 | 0.00 | 0.00 | 0.00 | 82 | 1006.2 |
| 20260506162331 | 20 | 242 | 0.0 | 6.4 | 0.00 | 0.00 | 0.00 | 81 | 1006.1 |
| 20260506161834 | 20 | 259 | 0.0 | 6.4 | 0.00 | 0.00 | 0.00 | 82 | 1006.0 |
| 20260506161334 | 20 | 283 | 1.6 | 6.4 | 0.00 | 0.00 | 0.00 | 78 | 1006.0 |
| 20260506160843 | 20 | 282 | 0.0 | 3.2 | 0.00 | 0.00 | 0.00 | 78 | 1006.1 |
| 20260506160349 | 20 | 288 | 0.0 | 11.3 | 0.00 | 0.00 | 0.00 | 78 | 1006.2 |
| 20260506155834 | 20 | 236 | 1.6 | 11.3 | 0.00 | 0.00 | 0.00 | 78 | 1006.1 |
| 20260506155359 | 20 | 208 | 3.2 | 11.3 | 0.00 | 0.00 | 0.00 | 77 | 1006.3 |
| 20260506154819 | 20 | 55 | 0.0 | 12.9 | 0.00 | 0.00 | 0.00 | 78 | 1006.6 |
| 20260506154322 | 20 | 9 | 1.6 | 12.9 | 0.00 | 0.00 | 0.00 | 77 | 1006.6 |
| 20260506153820 | 21 | 19 | 0.0 | 4.8 | 0.00 | 0.00 | 0.00 | 77 | 1006.6 |
| 20260506153324 | 20 | 18 | 0.0 | 8.0 | 0.00 | 0.00 | 0.00 | 78 | 1006.5 |
| 20260506152857 | 20 | 19 | 0.0 | 11.3 | 0.00 | 0.00 | 0.00 | 78 | 1006.5 |
| 20260506152341 | 20 | 348 | 1.6 | 11.3 | 0.00 | 0.00 | 0.00 | 78 | 1006.6 |
| 20260506151835 | 20 | 327 | 0.0 | 9.7 | 0.00 | 0.00 | 0.00 | 78 | 1006.7 |
| 20260506151321 | 20 | 155 | 1.6 | 9.7 | 0.00 | 0.00 | 0.00 | 79 | 1006.7 |
| 20260506150842 | 20 | 165 | 1.6 | 8.0 | 0.00 | 0.00 | 0.00 | 78 | 1006.7 |
| 20260506150330 | 20 | 228 | 1.6 | 8.0 | 0.00 | 0.00 | 0.00 | 79 | 1006.7 |
| 20260506145820 | 20 | 107 | 1.6 | 9.7 | 0.00 | 0.00 | 0.00 | 80 | 1006.8 |
| 20260506145322 | 20 | 105 | 1.6 | 11.3 | 0.00 | 0.00 | 0.00 | 80 | 1006.7 |
| 20260506144818 | 20 | 91 | 1.6 | 11.3 | 0.00 | 0.00 | 0.00 | 81 | 1006.8 |
| 20260506144401 | 20 | 196 | 0.0 | 8.0 | 0.00 | 0.00 | 0.00 | 81 | 1006.8 |
| 20260506143833 | 20 | 128 | 0.0 | 8.0 | 0.00 | 0.00 | 0.00 | 82 | 1006.8 |
| 20260506143348 | 19 | 142 | 0.0 | 3.2 | 0.00 | 0.00 | 0.00 | 84 | 1006.9 |
| 20260506142847 | 19 | 143 | 1.6 | 8.0 | 0.00 | 0.00 | 0.00 | 83 | 1007.1 |
| 20260506142334 | 19 | 134 | 1.6 | 8.0 | 0.00 | 0.00 | 0.00 | 84 | 1006.9 |
| 20260506141826 | 18 | 142 | 0.0 | 14.5 | 0.00 | 0.00 | 0.00 | 85 | 1007.0 |
| 20260506141327 | 18 | 130 | 1.6 | 9.7 | 0.00 | 0.00 | 0.00 | 85 | 1007.0 |
| 20260506140820 | 18 | 209 | 1.6 | 8.0 | 0.00 | 0.00 | 0.00 | 87 | 1006.9 |
| 20260506140341 | 18 | 83 | 0.0 | 3.2 | 0.00 | 0.00 | 0.00 | 88 | 1006.9 |
| 20260506135833 | 17 | 15 | 0.0 | 1.6 | 0.00 | 0.00 | 0.00 | 89 | 1007.1 |
| 20260506135323 | 17 | 15 | 0.0 | 6.4 | 0.00 | 0.00 | 0.00 | 89 | 1007.0 |
| 20260506134844 | 17 | 15 | 0.0 | 6.4 | 0.00 | 0.00 | 0.00 | 90 | 1007.0 |
| 20260506134331 | 17 | 153 | 0.0 | 6.4 | 0.00 | 0.00 | 0.00 | 90 | 1007.0 |
| 20260506133823 | 17 | 153 | 1.6 | 6.4 | 0.00 | 0.00 | 0.00 | 90 | 1007.0 |
| 20260506133340 | 17 | 203 | 0.0 | 3.2 | 0.00 | 0.00 | 0.00 | 90 | 1007.0 |
| 20260506132828 | 17 | 203 | 0.0 | 3.2 | 0.00 | 0.00 | 0.00 | 90 | 1006.9 |
| 20260506132344 | 16 | 203 | 0.0 | 6.4 | 0.00 | 0.00 | 0.00 | 91 | 1006.9 |
| 20260506131819 | 16 | 203 | 1.6 | 6.4 | 0.00 | 0.00 | 0.00 | 91 | 1007.0 |
| 20260506131338 | 16 | 75 | 0.0 | 1.6 | 0.00 | 0.00 | 0.00 | 92 | 1007.0 |
| 20260506130828 | 16 | 75 | 0.0 | 3.2 | 0.00 | 0.00 | 0.00 | 92 | 1007.1 |
| 20260506130324 | 16 | 75 | 0.0 | 3.2 | 0.00 | 0.00 | 0.00 | 92 | 1007.1 |
| 20260506125842 | 16 | 74 | 0.0 | 1.6 | 0.00 | 0.00 | 0.00 | 93 | 1007.2 |
| 20260506125337 | 16 | 74 | 0.0 | 4.8 | 0.00 | 0.00 | 0.00 | 93 | 1007.3 |
| 20260506124827 | 16 | 74 | 0.0 | 6.4 | 0.00 | 0.00 | 0.00 | 93 | 1007.1 |
| 20260506124334 | 16 | 74 | 1.6 | 6.4 | 0.00 | 0.00 | 0.00 | 93 | 1007.1 |
| 20260506123827 | 15 | 67 | 0.0 | 1.6 | 0.00 | 0.00 | 0.00 | 94 | 1007.6 |
| 20260506123347 | 15 | 67 | 0.0 | 4.8 | 0.00 | 0.00 | 0.00 | 94 | 1007.6 |
| 20260506122834 | 15 | 67 | 0.0 | 1.6 | 0.00 | 0.00 | 0.00 | 94 | 1007.6 |
| 20260506122355 | 15 | 67 | 0.0 | 6.4 | 0.00 | 0.00 | 0.00 | 94 | 1007.6 |
| 20260506121831 | 15 | 65 | 0.0 | 1.6 | 0.00 | 0.00 | 0.00 | 94 | 1007.7 |
| 20260506121320 | 15 | 65 | 0.0 | 3.2 | 0.00 | 0.00 | 0.00 | 95 | 1007.6 |
| 20260506120839 | 15 | 65 | 0.0 | 3.2 | 0.00 | 0.00 | 0.00 | 95 | 1007.6 |
| 20260506120335 | 15 | 65 | 0.0 | 1.6 | 0.00 | 0.00 | 0.00 | 95 | 1007.6 |
| 20260506115816 | 15 | 65 | 0.0 | 1.6 | 0.00 | 0.00 | 0.00 | 95 | 1007.4 |
| 20260506115341 | 15 | 65 | 0.0 | 1.6 | 0.00 | 0.00 | 0.00 | 96 | 1007.4 |
| 20260506114837 | 15 | 65 | 0.0 | 1.6 | 0.00 | 0.00 | 0.00 | 96 | 1007.6 |
| 20260506114335 | 15 | 65 | 0.0 | 0.0 | 0.00 | 0.00 | 0.00 | 97 | 1007.5 |
| 20260506113832 | 14 | 65 | 0.0 | 1.6 | 0.00 | 0.00 | 0.00 | 98 | 1007.6 |
| 20260506113333 | 14 | 65 | 0.0 | 1.6 | 0.00 | 0.00 | 0.00 | 98 | 1007.7 |
| 20260506112858 | 14 | 65 | 0.0 | 0.0 | 0.00 | 0.00 | 0.00 | 98 | 1007.7 |
| 20260506112335 | 13 | 65 | 0.0 | 1.6 | 0.00 | 0.00 | 0.00 | 99 | 1007.6 |
| 20260506111830 | 13 | 65 | 0.0 | 1.6 | 0.00 | 0.00 | 0.00 | 100 | 1007.5 |
| 20260506111327 | 13 | 65 | 0.0 | 4.8 | 0.00 | 0.00 | 0.00 | 100 | 1007.6 |
| 20260506110849 | 13 | 65 | 0.0 | 4.8 | 0.00 | 0.00 | 0.00 | 100 | 1007.6 |
| 20260506110327 | 12 | 64 | 0.0 | 1.6 | 0.00 | 0.00 | 0.00 | 100 | 1007.6 |
| 20260506105821 | 12 | 64 | 0.0 | 1.6 | 0.00 | 0.00 | 0.00 | 100 | 1007.7 |
| 20260506105342 | 12 | 65 | 0.0 | 0.0 | 0.00 | 0.00 | 0.00 | 100 | 1007.8 |
| 20260506104842 | 12 | 65 | 0.0 | 0.0 | 0.00 | 0.00 | 0.00 | 100 | 1007.8 |
| 20260506104333 | 12 | 65 | 0.0 | 0.0 | 0.00 | 0.00 | 0.00 | 100 | 1007.7 |
| 20260506103827 | 12 | 65 | 0.0 | 1.6 | 0.00 | 0.00 | 0.00 | 100 | 1007.7 |
| 20260506103321 | 11 | 65 | 0.0 | 0.0 | 0.00 | 0.00 | 0.00 | 100 | 1007.8 |
| 20260506102846 | 11 | 65 | 0.0 | 0.0 | 0.00 | 0.00 | 0.00 | 100 | 1007.8 |
| 20260506102343 | 11 | 65 | 0.0 | 0.0 | 0.00 | 0.00 | 0.00 | 100 | 1007.7 |
| 20260506101842 | 11 | 65 | 0.0 | 0.0 | 0.00 | 0.00 | 0.00 | 100 | 1007.6 |
| 20260506101333 | 11 | 65 | 0.0 | 0.0 | 0.00 | 0.00 | 0.00 | 99 | 1007.6 |
| 20260506100903 | 11 | 65 | 0.0 | 0.0 | 0.00 | 0.00 | 0.00 | 99 | 1007.5 |
| 20260506100336 | 11 | 65 | 0.0 | 0.0 | 0.00 | 0.00 | 0.00 | 99 | 1007.5 |
| 20260506095841 | 11 | 65 | 0.0 | 0.0 | 0.00 | 0.00 | 0.00 | 99 | 1007.6 |
| 20260506095333 | 11 | 65 | 0.0 | 0.0 | 0.00 | 0.00 | 0.00 | 99 | 1007.5 |
| 20260506094858 | 11 | 65 | 0.0 | 0.0 | 0.00 | 0.00 | 0.00 | 99 | 1007.5 |
| 20260506094323 | 11 | 65 | 0.0 | 0.0 | 0.00 | 0.00 | 0.00 | 99 | 1007.4 |
| 20260506093824 | 11 | 65 | 0.0 | 0.0 | 0.00 | 0.00 | 0.00 | 99 | 1007.4 |
| 20260506093327 | 11 | 65 | 0.0 | 0.0 | 0.00 | 0.00 | 0.00 | 98 | 1007.4 |
| 20260506092825 | 11 | 65 | 0.0 | 0.0 | 0.00 | 0.00 | 0.00 | 98 | 1007.4 |
| 20260506092328 | 12 | 65 | 0.0 | 0.0 | 0.00 | 0.00 | 0.00 | 98 | 1007.4 |
| 20260506091824 | 12 | 65 | 0.0 | 0.0 | 0.00 | 0.00 | 0.00 | 98 | 1007.4 |
| 20260506091339 | 12 | 65 | 0.0 | 0.0 | 0.00 | 0.00 | 0.00 | 98 | 1007.5 |
| 20260506090904 | 12 | 65 | 0.0 | 0.0 | 0.00 | 0.00 | 0.00 | 98 | 1007.5 |
| 20260506090338 | 12 | 65 | 0.0 | 0.0 | 0.00 | 0.00 | 0.00 | 98 | 1007.5 |
| 20260506085837 | 12 | 65 | 0.0 | 0.0 | 0.00 | 0.00 | 0.00 | 97 | 1007.5 |
| 20260506085330 | 12 | 65 | 0.0 | 0.0 | 0.00 | 0.00 | 0.00 | 97 | 1007.5 |
| 20260506084830 | 12 | 65 | 0.0 | 0.0 | 0.00 | 0.00 | 0.00 | 97 | 1007.5 |
| 20260506084328 | 12 | 65 | 0.0 | 0.0 | 0.00 | 0.00 | 0.00 | 97 | 1007.5 |
| 20260506083827 | 12 | 65 | 0.0 | 0.0 | 0.00 | 0.00 | 0.00 | 97 | 1007.5 |
| 20260506083323 | 12 | 65 | 0.0 | 0.0 | 0.00 | 0.00 | 0.00 | 97 | 1007.6 |
| 20260506082827 | 12 | 65 | 0.0 | 0.0 | 0.00 | 0.00 | 0.00 | 96 | 1007.6 |
| 20260506082412 | 12 | 65 | 0.0 | 0.0 | 0.00 | 0.00 | 0.00 | 96 | 1007.7 |
| 20260506081842 | 12 | 65 | 0.0 | 0.0 | 0.00 | 0.00 | 0.00 | 96 | 1007.7 |
| 20260506081337 | 12 | 65 | 0.0 | 0.0 | 0.00 | 0.00 | 0.00 | 96 | 1007.6 |
| 20260506080831 | 12 | 65 | 0.0 | 0.0 | 0.00 | 0.00 | 0.00 | 96 | 1007.5 |
| 20260506080322 | 12 | 65 | 0.0 | 0.0 | 0.00 | 0.00 | 0.00 | 95 | 1007.5 |
| 20260506073332 | 13 | 65 | 0.0 | 0.0 | 0.00 | 0.00 | 0.00 | 94 | 1007.6 |
| 20260506072825 | 13 | 65 | 0.0 | 0.0 | 0.00 | 0.00 | 0.00 | 93 | 1007.5 |
| 20260506072407 | 13 | 65 | 0.0 | 0.0 | 0.00 | 0.00 | 0.00 | 93 | 1007.6 |
| 20260506071848 | 13 | 65 | 0.0 | 1.6 | 0.00 | 0.00 | 0.00 | 93 | 1007.5 |
| 20260506071350 | 13 | 65 | 0.0 | 0.0 | 0.00 | 0.00 | 0.00 | 93 | 1007.6 |
| 20260506070842 | 13 | 65 | 0.0 | 0.0 | 0.00 | 0.00 | 0.00 | 93 | 1007.6 |
| 20260506070344 | 13 | 65 | 0.0 | 0.0 | 0.00 | 0.00 | 0.00 | 92 | 1007.6 |
| 20260506062343 | 15 | 65 | 0.0 | 0.0 | 0.00 | 0.00 | 0.00 | 88 | 1007.3 |
| 20260506061845 | 15 | 65 | 0.0 | 1.6 | 0.00 | 0.00 | 0.00 | 87 | 1007.3 |
| 20260506061349 | 15 | 65 | 0.0 | 1.6 | 0.00 | 0.00 | 0.00 | 87 | 1007.3 |
| 20260506060841 | 15 | 65 | 0.0 | 4.8 | 0.00 | 0.00 | 0.00 | 86 | 1007.3 |
| 20260506060343 | 15 | 65 | 0.0 | 4.8 | 0.00 | 0.00 | 0.00 | 86 | 1007.3 |
| 20260506051336 | 16 | 65 | 0.0 | 3.2 | 0.00 | 0.00 | 0.00 | 84 | 1007.6 |
| 20260506050835 | 16 | 67 | 0.0 | 1.6 | 0.00 | 0.00 | 0.00 | 85 | 1007.6 |
| 20260506050327 | 16 | 67 | 0.0 | 0.0 | 0.00 | 0.00 | 0.00 | 85 | 1007.6 |
| 20260506044826 | 16 | 93 | 0.0 | 0.0 | 0.00 | 0.00 | 0.00 | 84 | 1007.6 |
| 20260506044321 | 16 | 93 | 0.0 | 0.0 | 0.00 | 0.00 | 0.00 | 84 | 1007.7 |
| 20260506043822 | 16 | 93 | 0.0 | 1.6 | 0.00 | 0.00 | 0.00 | 83 | 1007.7 |
| 20260506043349 | 16 | 93 | 0.0 | 1.6 | 0.00 | 0.00 | 0.00 | 82 | 1007.7 |
| 20260506042847 | 16 | 93 | 0.0 | 1.6 | 0.00 | 0.00 | 0.00 | 82 | 1007.7 |
| 20260506042337 | 16 | 93 | 0.0 | 3.2 | 0.00 | 0.00 | 0.00 | 82 | 1007.6 |
| 20260506041834 | 16 | 90 | 0.0 | 3.2 | 0.00 | 0.00 | 0.00 | 81 | 1007.6 |
| 20260506041332 | 16 | 90 | 0.0 | 1.6 | 0.00 | 0.00 | 0.00 | 81 | 1007.8 |
| 20260506040836 | 16 | 90 | 0.0 | 0.0 | 0.00 | 0.00 | 0.00 | 81 | 1007.7 |
| 20260506040336 | 16 | 90 | 0.0 | 0.0 | 0.00 | 0.00 | 0.00 | 82 | 1007.8 |
| 20260506035857 | 16 | 90 | 0.0 | 0.0 | 0.00 | 0.00 | 0.00 | 82 | 1007.8 |
| 20260506035328 | 16 | 90 | 0.0 | 0.0 | 0.00 | 0.00 | 0.00 | 81 | 1007.8 |
| 20260506034829 | 16 | 90 | 0.0 | 0.0 | 0.00 | 0.00 | 0.00 | 81 | 1007.8 |
| 20260506034324 | 16 | 90 | 0.0 | 0.0 | 0.00 | 0.00 | 0.00 | 82 | 1007.7 |
| 20260506033854 | 16 | 90 | 0.0 | 0.0 | 0.00 | 0.00 | 0.00 | 82 | 1007.8 |
| 20260506033330 | 16 | 90 | 0.0 | 0.0 | 0.00 | 0.00 | 0.00 | 83 | 1007.8 |
| 20260506032831 | 16 | 90 | 0.0 | 0.0 | 0.00 | 0.00 | 0.00 | 83 | 1007.8 |
| 20260506032356 | 16 | 90 | 0.0 | 0.0 | 0.00 | 0.00 | 0.00 | 83 | 1007.9 |
| 20260506031902 | 16 | 90 | 0.0 | 0.0 | 0.00 | 0.00 | 0.00 | 83 | 1007.8 |
| 20260506031334 | 16 | 90 | 0.0 | 0.0 | 0.00 | 0.00 | 0.00 | 83 | 1007.8 |
| 20260506030827 | 16 | 90 | 0.0 | 0.0 | 0.00 | 0.00 | 0.00 | 84 | 1007.7 |
| 20260506030321 | 16 | 90 | 0.0 | 0.0 | 0.00 | 0.00 | 0.00 | 83 | 1007.7 |
| 20260506025823 | 16 | 90 | 0.0 | 0.0 | 0.00 | 0.00 | 0.00 | 84 | 1007.7 |
| 20260506025320 | 16 | 90 | 0.0 | 0.0 | 0.00 | 0.00 | 0.00 | 84 | 1007.7 |
| 20260506024847 | 16 | 90 | 0.0 | 1.6 | 0.00 | 0.00 | 0.00 | 83 | 1007.7 |
| 20260506024342 | 16 | 90 | 0.0 | 1.6 | 0.00 | 0.00 | 0.00 | 83 | 1007.5 |
| 20260506023850 | 16 | 90 | 0.0 | 0.0 | 0.00 | 0.00 | 0.00 | 84 | 1007.6 |
| 20260506023325 | 16 | 90 | 0.0 | 0.0 | 0.00 | 0.00 | 0.00 | 84 | 1007.6 |
| 20260506022828 | 16 | 90 | 0.0 | 0.0 | 0.00 | 0.00 | 0.00 | 85 | 1007.6 |
| 20260506022323 | 16 | 90 | 0.0 | 0.0 | 0.00 | 0.00 | 0.00 | 85 | 1007.6 |
| 20260506021822 | 16 | 90 | 0.0 | 0.0 | 0.00 | 0.00 | 0.00 | 85 | 1007.5 |
| 20260506021344 | 15 | 90 | 0.0 | 0.0 | 0.00 | 0.00 | 0.00 | 84 | 1007.6 |
| 20260506020841 | 15 | 90 | 0.0 | 0.0 | 0.00 | 0.00 | 0.00 | 86 | 1007.6 |
| 20260506020333 | 15 | 90 | 0.0 | 0.0 | 0.00 | 0.00 | 0.00 | 86 | 1007.6 |
| 20260506015829 | 15 | 90 | 0.0 | 0.0 | 0.00 | 0.00 | 0.00 | 86 | 1007.7 |
| 20260506015327 | 15 | 90 | 0.0 | 0.0 | 0.00 | 0.00 | 0.00 | 86 | 1007.6 |
| 20260506014824 | 15 | 90 | 0.0 | 0.0 | 0.00 | 0.00 | 0.00 | 86 | 1007.6 |
| 20260506014349 | 15 | 90 | 0.0 | 0.0 | 0.00 | 0.00 | 0.00 | 85 | 1007.4 |
| 20260506013843 | 15 | 90 | 0.0 | 0.0 | 0.00 | 0.00 | 0.00 | 85 | 1007.5 |
| 20260506013336 | 16 | 90 | 0.0 | 0.0 | 0.00 | 0.00 | 0.00 | 85 | 1007.5 |
| 20260506012904 | 16 | 90 | 0.0 | 0.0 | 0.00 | 0.00 | 0.00 | 85 | 1007.4 |
| 20260506012334 | 16 | 90 | 0.0 | 0.0 | 0.00 | 0.00 | 0.00 | 85 | 1007.3 |
| 20260506011822 | 16 | 90 | 0.0 | 0.0 | 0.00 | 0.00 | 0.00 | 84 | 1007.2 |
| 20260506011328 | 16 | 90 | 0.0 | 0.0 | 0.00 | 0.00 | 0.00 | 83 | 1007.1 |
| 20260506010839 | 16 | 90 | 0.0 | 0.0 | 0.00 | 0.00 | 0.00 | 83 | 1007.1 |
| 20260506010334 | 16 | 90 | 0.0 | 0.0 | 0.00 | 0.00 | 0.00 | 83 | 1007.1 |
| 20260506005834 | 17 | 90 | 0.0 | 0.0 | 0.00 | 0.00 | 0.00 | 81 | 1007.0 |
| 20260506005333 | 17 | 90 | 0.0 | 0.0 | 0.00 | 0.00 | 0.00 | 81 | 1007.0 |
| 20260506004826 | 17 | 90 | 0.0 | 0.0 | 0.00 | 0.00 | 0.00 | 80 | 1007.0 |
| 20260506004319 | 17 | 90 | 0.0 | 0.0 | 0.00 | 0.00 | 0.00 | 78 | 1007.0 |
| 20260506003848 | 18 | 90 | 0.0 | 0.0 | 0.00 | 0.00 | 0.00 | 77 | 1006.9 |
| 20260506003342 | 18 | 90 | 0.0 | 0.0 | 0.00 | 0.00 | 0.00 | 77 | 1006.8 |
| 20260506002840 | 18 | 90 | 0.0 | 0.0 | 0.00 | 0.00 | 0.00 | 76 | 1006.8 |
| 20260506002337 | 18 | 90 | 0.0 | 0.0 | 0.00 | 0.00 | 0.00 | 76 | 1006.7 |
| 20260506001827 | 19 | 90 | 0.0 | 0.0 | 0.00 | 0.00 | 0.00 | 74 | 1006.6 |
| 20260506001327 | 19 | 90 | 0.0 | 0.0 | 0.00 | 0.00 | 0.00 | 72 | 1006.5 |
| 20260506000859 | 20 | 90 | 0.0 | 0.0 | 0.00 | 0.00 | 0.00 | 71 | 1006.4 |
| 20260506000336 | 20 | 90 | 0.0 | 0.0 | 0.00 | 0.00 | 0.00 | 71 | 1006.4 |
| 20260505235838 | 20 | 90 | 0.0 | 1.6 | 0.00 | 0.00 | 0.00 | 70 | 1006.2 |
| 20260505235335 | 20 | 90 | 0.0 | 0.0 | 0.00 | 0.00 | 0.00 | 69 | 1006.2 |
| 20260505234835 | 20 | 90 | 0.0 | 0.0 | 0.00 | 0.00 | 0.00 | 69 | 1006.1 |
| 20260505234333 | 20 | 90 | 0.0 | 3.2 | 0.00 | 0.00 | 0.00 | 69 | 1006.0 |
| 20260505233835 | 20 | 90 | 0.0 | 3.2 | 0.00 | 0.00 | 0.00 | 69 | 1006.0 |
| 20260505233341 | 20 | 64 | 0.0 | 1.6 | 0.00 | 0.00 | 0.00 | 68 | 1005.9 |
| 20260505232840 | 21 | 64 | 0.0 | 3.2 | 0.00 | 0.00 | 0.00 | 68 | 1005.9 |
| 20260505232323 | 21 | 65 | 0.0 | 4.8 | 0.00 | 0.00 | 0.00 | 68 | 1005.8 |
| 20260505231832 | 21 | 70 | 0.0 | 4.8 | 0.00 | 0.00 | 0.00 | 67 | 1005.7 |
| 20260505231331 | 21 | 46 | 0.0 | 8.0 | 0.00 | 0.00 | 0.00 | 66 | 1005.6 |
| 20260505230823 | 21 | 305 | 0.0 | 9.7 | 0.00 | 0.00 | 0.00 | 66 | 1005.5 |
| 20260505230346 | 21 | 213 | 3.2 | 9.7 | 0.00 | 0.00 | 0.00 | 66 | 1005.5 |
| 20260505225840 | 21 | 265 | 0.0 | 8.0 | 0.00 | 0.00 | 0.00 | 66 | 1005.5 |
| 20260505225320 | 22 | 113 | 1.6 | 11.3 | 0.00 | 0.00 | 0.00 | 66 | 1005.4 |
| 20260505224824 | 22 | 113 | 1.6 | 11.3 | 0.00 | 0.00 | 0.00 | 66 | 1005.4 |
| 20260505224329 | 22 | 57 | 0.0 | 8.0 | 0.00 | 0.00 | 0.00 | 65 | 1005.3 |
| 20260505223830 | 22 | 58 | 0.0 | 8.0 | 0.00 | 0.00 | 0.00 | 67 | 1005.2 |
| 20260505223334 | 22 | 40 | 0.0 | 6.4 | 0.00 | 0.00 | 0.00 | 65 | 1005.2 |
| 20260505222840 | 22 | 61 | 0.0 | 6.4 | 0.00 | 0.00 | 0.00 | 65 | 1005.1 |
| 20260505222346 | 22 | 61 | 0.0 | 6.4 | 0.00 | 0.00 | 0.00 | 65 | 1005.0 |
| 20260505221850 | 22 | 51 | 0.0 | 11.3 | 0.00 | 0.00 | 0.00 | 65 | 1005.0 |
| 20260505221333 | 22 | 111 | 0.0 | 11.3 | 0.00 | 0.00 | 0.00 | 64 | 1005.0 |
| 20260505220839 | 22 | 315 | 0.0 | 9.7 | 0.00 | 0.00 | 0.00 | 63 | 1005.0 |
| 20260505220335 | 22 | 233 | 3.2 | 9.7 | 0.00 | 0.00 | 0.00 | 63 | 1004.9 |
| 20260505215840 | 23 | 123 | 3.2 | 11.3 | 0.00 | 0.00 | 0.00 | 62 | 1004.8 |
| 20260505215322 | 23 | 182 | 3.2 | 11.3 | 0.00 | 0.00 | 0.00 | 62 | 1004.8 |
| 20260505214828 | 23 | 35 | 1.6 | 14.5 | 0.00 | 0.00 | 0.00 | 62 | 1005.0 |
| 20260505214329 | 23 | 143 | 3.2 | 14.5 | 0.00 | 0.00 | 0.00 | 62 | 1005.1 |
| 20260505213839 | 23 | 139 | 6.4 | 14.5 | 0.00 | 0.00 | 0.00 | 61 | 1005.1 |
| 20260505213338 | 24 | 242 | 3.2 | 14.5 | 0.00 | 0.00 | 0.00 | 60 | 1005.1 |
| 20260505212822 | 24 | 40 | 1.6 | 9.7 | 0.00 | 0.00 | 0.00 | 59 | 1005.0 |
| 20260505212326 | 25 | 93 | 1.6 | 11.3 | 0.00 | 0.00 | 0.00 | 59 | 1005.0 |
| 20260505211834 | 25 | 231 | 1.6 | 9.7 | 0.00 | 0.00 | 0.00 | 58 | 1005.0 |
| 20260505211335 | 25 | 157 | 0.0 | 4.8 | 0.00 | 0.00 | 0.00 | 60 | 1004.9 |
| 20260505210825 | 25 | 155 | 0.0 | 4.8 | 0.00 | 0.00 | 0.00 | 60 | 1004.8 |
| 20260505210327 | 25 | 94 | 0.0 | 12.9 | 0.00 | 0.00 | 0.00 | 59 | 1004.8 |
| 20260505205830 | 25 | 219 | 1.6 | 12.9 | 0.00 | 0.00 | 0.00 | 59 | 1004.8 |